Location: Newark
(30.0333°N, 31.2167°E)
Time: 17:35:53
(UTC+00:00)

Vanguard 2 - Visible Passes

Search period start: 20 January 2020 00:00
Search period end: 30 January 2020 00:00
Orbit: 553 x 2938 km, 32.9° (Epoch: 19 January)

Date Brightness Start Highest point End Pass type
(mag) Time Alt. Az. Time Alt. Az. Time Alt. Az.
20 Jan 9.2 16:47:27 10° WSW 16:50:23 20° SSW 16:53:30 10° SSE visible
21 Jan 9.8 17:06:52 10° SW 17:08:12 11° SSW 17:09:34 10° S visible
24 Jan 9.7 15:51:04 10° WSW 15:53:39 15° SW 15:56:05 10° S visible
27 Jan 12.3 03:38:57 10° S 03:47:21 15° SE 03:55:09 10° ESE visible
28 Jan 12.1 03:53:28 10° S 04:05:25 22° SE 04:16:07 10° E visible
29 Jan 12.0 04:09:16 10° SSW 04:23:24 30° SE 04:35:45 10° E visible
